Simultaneous Nadir Overpasses (SNOs) Predictions

Prediction of SNOs between LANDSAT-8 and METOP-B Satellite Orbit:

Table of predicted SNOs for the next 14.0 days since TLE Epoch: 10/27/2018
Index Date (LANDSAT-8) Time (LANDSAT-8) Lat,Lon (LANDSAT-8) SZA (LANDSAT-8 ) Date (METOP-B) Time (METOP-B) Lat,Lon (METOP-B) SZA (METOP-B ) Distance(km) Time Diff (sec)
1 10/27/2018 04:56:46 81.18, 146.66 96.41 10/27/2018 04:56:31 81.18, 146.50 96.39 2.79 15
2 10/27/2018 05:46:12 -81.20, -45.40 83.54 10/27/2018 05:47:10 -81.20, -45.45 83.52 0.89 58
3 10/30/2018 00:31:01 81.18,-146.95 97.35 10/30/2018 00:30:51 81.19,-146.90 97.35 0.91 10
4 10/30/2018 01:20:27 -81.20, 21.01 82.60 10/30/2018 01:21:30 -81.21, 21.14 82.55 2.28 63
5 11/01/2018 20:05:17 81.18, -80.58 98.24 11/01/2018 20:05:13 81.18, -80.69 98.23 1.98 4
6 11/01/2018 20:54:43 -81.20, 87.40 81.70 11/01/2018 20:55:52 -81.20, 87.34 81.67 1.00 69
7 11/04/2018 14:50:07 -81.17, 178.07 80.92 11/04/2018 14:48:55 -81.16, 177.89 80.97 3.19 72
8 11/04/2018 15:39:32 81.19, -13.87 99.16 11/04/2018 15:39:33 81.19, -13.74 99.17 2.18 1
9 11/04/2018 16:28:47 -81.43, 158.31 80.18 11/04/2018 16:30:01 -81.30, 158.54 80.20 15.27 74
10 11/07/2018 10:24:21 -81.18,-115.23 80.04 11/07/2018 10:23:14 -81.18,-115.19 80.07 0.90 67




NCC Satellite Simultaneous Nadir Overpasses (SNOs) Prediction Service
